Location: Eschentzwiller
(47.7125°N, 7.3981°E)
Time: 03:33:43
(UTC+00:00)

SeaSat 1 - Pass Details

Date: 27 October 2020
Orbit: 744 x 747 km, 108.0° (Epoch: 01 December)

Event Time Altitude Azimuth Distance (km) Brightness Sun altitude
Exits shadow 19:26:13 46° 266° (W) 1,004 3.3 -31.7°
Drops below altitude 10° 19:30:28 10° 321° (NW) 2,273 5.6 -32.4°
Sets 19:32:50 0° 327° (NNW) 3,201 6.4 -32.7°
